Location: Heidgraben
(53.7081°N, 9.6576°E)
Time: 00:14:39
(UTC+00:00)

Cosmos 773 Rocket - Pass Details

Date: 05 July 2020
Orbit: 746 x 776 km, 74.1° (Epoch: 03 August)

Event Time Altitude Azimuth Distance (km) Brightness Sun altitude
Rises 20:51:31 0° 194° (SSW) 3,246 6.9 -6.6°
Reaches altitude 10° 20:53:54 10° 191° (S) 2,323 6.1 -6.9°
Maximum altitude 20:59:07 65° 111° (ESE) 857 4.1 -7.3°
Drops below altitude 10° 21:04:22 10° 31° (NNE) 2,332 6.9 -7.7°
Sets 21:06:46 0° 28° (NNE) 3,260 7.7 -7.9°
